Time,TemperatureF,DewpointF,PressureIn,WindDirection,WindDirectionDegrees,WindSpeedMPH,WindSpeedGustMPH,Humidity,HourlyPrecipIn,Conditions,Clouds,dailyrainin,SoftwareType,DateUTC
2013-06-16 00:01:00,75.9,67.8,29.98,ESE,107,0.0,0.0,76,0.00,,---,0.00,VWS V14.01,2013-06-16 05:01:00,
2013-06-16 00:06:00,75.6,67.5,29.98,ESE,107,0.0,0.0,76,0.00,,---,0.00,VWS V14.01,2013-06-16 05:06:00,
2013-06-16 00:11:00,75.4,67.7,29.98,ESE,107,0.0,0.0,77,0.00,,---,0.00,VWS V14.01,2013-06-16 05:11:00,
2013-06-16 00:16:00,75.1,67.4,29.97,ESE,107,0.0,0.0,77,0.00,,---,0.00,VWS V14.01,2013-06-16 05:16:00,
2013-06-16 00:21:00,74.9,67.2,29.97,ESE,107,0.0,0.0,77,0.00,,---,0.00,VWS V14.01,2013-06-16 05:21:00,
2013-06-16 00:26:00,74.7,67.4,29.97,ESE,107,0.0,0.0,78,0.00,,---,0.00,VWS V14.01,2013-06-16 05:26:00,
2013-06-16 00:31:00,74.5,67.6,29.97,ESE,107,0.0,0.0,79,0.00,,---,0.00,VWS V14.01,2013-06-16 05:31:00,
2013-06-16 00:36:00,74.2,67.3,29.97,ESE,107,0.0,0.0,79,0.00,,---,0.00,VWS V14.01,2013-06-16 05:36:00,
2013-06-16 00:41:00,74.0,67.4,29.97,ESE,107,0.0,0.0,80,0.00,,---,0.00,VWS V14.01,2013-06-16 05:41:00,
2013-06-16 00:46:00,73.8,67.6,29.97,ESE,107,0.0,0.0,81,0.00,,---,0.00,VWS V14.01,2013-06-16 05:46:00,
2013-06-16 00:51:00,73.6,67.4,29.98,ESE,107,0.0,0.0,81,0.00,,---,0.00,VWS V14.01,2013-06-16 05:51:00,
2013-06-16 00:56:00,73.4,67.6,29.98,ESE,107,0.0,0.0,82,0.00,,---,0.00,VWS V14.01,2013-06-16 05:56:00,
2013-06-16 01:01:00,73.2,67.4,29.98,ESE,107,0.0,0.0,82,0.00,,---,0.00,VWS V14.01,2013-06-16 06:01:00,
2013-06-16 01:06:00,73.0,67.5,29.98,ESE,107,0.0,0.0,83,0.00,,---,0.00,VWS V14.01,2013-06-16 06:06:00,
2013-06-16 01:11:00,72.9,67.1,29.98,ESE,107,0.0,0.0,82,0.00,,---,0.00,VWS V14.01,2013-06-16 06:11:00,
2013-06-16 01:16:00,72.7,67.2,29.98,ESE,107,0.0,0.0,83,0.00,,---,0.00,VWS V14.01,2013-06-16 06:16:00,
2013-06-16 01:21:00,72.6,67.2,29.98,ESE,107,0.0,0.0,83,0.00,,---,0.00,VWS V14.01,2013-06-16 06:21:00,
2013-06-16 01:26:00,72.5,67.1,29.98,ESE,107,0.0,0.0,83,0.00,,---,0.00,VWS V14.01,2013-06-16 06:26:00,
2013-06-16 01:31:00,72.4,66.9,29.98,ESE,107,0.0,0.0,83,0.00,,---,0.00,VWS V14.01,2013-06-16 06:31:00,
2013-06-16 01:36:00,72.3,67.2,29.98,ESE,107,0.0,0.0,84,0.00,,---,0.00,VWS V14.01,2013-06-16 06:36:00,
2013-06-16 01:41:00,72.4,67.6,29.98,ESE,107,0.0,0.0,85,0.00,,---,0.00,VWS V14.01,2013-06-16 06:41:00,
2013-06-16 01:46:00,72.5,67.4,29.97,ESE,107,0.0,0.0,84,0.00,,---,0.00,VWS V14.01,2013-06-16 06:46:00,
2013-06-16 01:51:00,72.4,67.3,29.97,ESE,107,0.0,0.0,84,0.00,,---,0.00,VWS V14.01,2013-06-16 06:51:00,
2013-06-16 01:56:00,72.4,67.3,29.97,ESE,107,0.0,0.0,84,0.00,,---,0.00,VWS V14.01,2013-06-16 06:56:00,
2013-06-16 02:01:00,72.4,67.6,29.97,ESE,107,0.0,0.0,85,0.00,,---,0.00,VWS V14.01,2013-06-16 07:01:00,
2013-06-16 02:06:00,72.3,67.5,29.97,ESE,107,0.0,0.0,85,0.00,,---,0.00,VWS V14.01,2013-06-16 07:06:00,
2013-06-16 02:11:00,72.2,67.4,29.96,ESE,107,0.0,0.0,85,0.00,,---,0.00,VWS V14.01,2013-06-16 07:11:00,
2013-06-16 02:16:00,72.1,67.3,29.96,ESE,107,0.0,0.0,85,0.00,,---,0.00,VWS V14.01,2013-06-16 07:16:00,
2013-06-16 02:21:00,72.0,67.2,29.96,ESE,107,0.0,0.0,85,0.00,,---,0.00,VWS V14.01,2013-06-16 07:21:00,
2013-06-16 02:26:00,71.9,67.2,29.96,ESE,107,0.0,0.0,85,0.00,,---,0.00,VWS V14.01,2013-06-16 07:26:00,
2013-06-16 02:31:00,71.7,67.3,29.96,ESE,107,0.0,0.0,86,0.00,,---,0.00,VWS V14.01,2013-06-16 07:31:00,
2013-06-16 02:36:00,71.6,67.2,29.96,ESE,107,0.0,0.0,86,0.00,,---,0.00,VWS V14.01,2013-06-16 07:36:00,
2013-06-16 02:41:00,71.5,67.1,29.96,ESE,107,0.0,0.0,86,0.00,,---,0.00,VWS V14.01,2013-06-16 07:41:00,
2013-06-16 02:46:00,71.5,67.4,29.96,ESE,107,0.0,0.0,87,0.00,,---,0.00,VWS V14.01,2013-06-16 07:46:00,
2013-06-16 02:51:00,71.4,67.3,29.96,ESE,107,0.0,0.0,87,0.00,,---,0.00,VWS V14.01,2013-06-16 07:51:00,
2013-06-16 02:56:00,71.4,67.3,29.96,ESE,107,0.0,0.0,87,0.00,,---,0.00,VWS V14.01,2013-06-16 07:56:00,
2013-06-16 03:01:00,71.3,67.2,29.96,ESE,107,0.0,0.0,87,0.00,,---,0.00,VWS V14.01,2013-06-16 08:01:00,
2013-06-16 03:06:00,71.3,67.2,29.96,ESE,107,0.0,0.0,87,0.00,,---,0.00,VWS V14.01,2013-06-16 08:06:00,
2013-06-16 03:11:00,71.2,67.1,29.96,ESE,107,0.0,0.0,87,0.00,,---,0.00,VWS V14.01,2013-06-16 08:11:00,
2013-06-16 03:16:00,71.2,67.1,29.96,ESE,107,0.0,0.0,87,0.00,,---,0.00,VWS V14.01,2013-06-16 08:16:00,
2013-06-16 03:21:00,71.2,67.1,29.96,ESE,107,0.0,0.0,87,0.00,,---,0.00,VWS V14.01,2013-06-16 08:21:00,
2013-06-16 03:26:00,71.2,67.5,29.96,ESE,107,0.0,0.0,88,0.00,,---,0.00,VWS V14.01,2013-06-16 08:26:00,
2013-06-16 03:31:00,71.2,67.5,29.96,ESE,107,0.0,0.0,88,0.00,,---,0.00,VWS V14.01,2013-06-16 08:31:00,
2013-06-16 03:36:00,71.1,67.4,29.96,ESE,107,0.0,0.0,88,0.00,,---,0.00,VWS V14.01,2013-06-16 08:36:00,
2013-06-16 03:41:00,71.2,67.5,29.96,ESE,107,0.0,0.0,88,0.00,,---,0.00,VWS V14.01,2013-06-16 08:41:00,
2013-06-16 03:46:00,71.1,67.4,29.96,ESE,107,0.0,0.0,88,0.00,,---,0.00,VWS V14.01,2013-06-16 08:46:00,
2013-06-16 03:51:00,71.1,67.4,29.96,ESE,107,0.0,0.0,88,0.00,,---,0.00,VWS V14.01,2013-06-16 08:51:00,
2013-06-16 03:56:00,71.2,67.5,29.96,ESE,107,0.0,0.0,88,0.00,,---,0.00,VWS V14.01,2013-06-16 08:56:00,
2013-06-16 04:01:00,71.2,67.5,29.96,ESE,107,0.0,0.0,88,0.00,,---,0.00,VWS V14.01,2013-06-16 09:01:00,
2013-06-16 04:06:00,71.2,67.5,29.96,ESE,107,0.0,0.0,88,0.00,,---,0.00,VWS V14.01,2013-06-16 09:06:00,
2013-06-16 04:11:00,71.1,67.4,29.96,ESE,107,0.0,0.0,88,0.00,,---,0.00,VWS V14.01,2013-06-16 09:11:00,
2013-06-16 04:16:00,71.1,67.4,29.95,ESE,107,0.0,0.0,88,0.00,,---,0.00,VWS V14.01,2013-06-16 09:16:00,
2013-06-16 04:21:00,71.1,67.4,29.95,ESE,107,0.0,0.0,88,0.00,,---,0.00,VWS V14.01,2013-06-16 09:21:00,
2013-06-16 04:26:00,71.1,67.4,29.95,ESE,107,0.0,0.0,88,0.00,,---,0.00,VWS V14.01,2013-06-16 09:26:00,
2013-06-16 04:31:00,71.0,66.9,29.95,ESE,107,0.0,0.0,87,0.00,,---,0.00,VWS V14.01,2013-06-16 09:31:00,
2013-06-16 04:36:00,71.0,66.9,29.95,ESE,107,0.0,0.0,87,0.00,,---,0.00,VWS V14.01,2013-06-16 09:36:00,
2013-06-16 04:41:00,71.1,67.0,29.95,ESE,107,0.0,0.0,87,0.00,,---,0.00,VWS V14.01,2013-06-16 09:41:00,
2013-06-16 04:46:00,71.1,67.0,29.95,ESE,107,0.0,0.0,87,0.00,,---,0.00,VWS V14.01,2013-06-16 09:46:00,
2013-06-16 04:51:00,71.1,67.0,29.96,ESE,107,0.0,0.0,87,0.00,,---,0.00,VWS V14.01,2013-06-16 09:51:00,
2013-06-16 04:56:00,71.2,67.1,29.96,ESE,107,0.0,0.0,87,0.00,,---,0.00,VWS V14.01,2013-06-16 09:56:00,
2013-06-16 05:01:00,71.2,67.1,29.96,ESE,107,0.0,0.0,87,0.00,,---,0.00,VWS V14.01,2013-06-16 10:01:00,
2013-06-16 05:06:00,71.3,67.2,29.96,ESE,107,0.0,0.0,87,0.00,,---,0.00,VWS V14.01,2013-06-16 10:06:00,
2013-06-16 05:11:00,71.5,67.1,29.96,ESE,107,0.0,0.0,86,0.00,,---,0.00,VWS V14.01,2013-06-16 10:11:00,
2013-06-16 05:16:00,71.5,67.1,29.96,ESE,107,0.0,0.0,86,0.00,,---,0.00,VWS V14.01,2013-06-16 10:16:00,
2013-06-16 05:21:00,71.6,67.2,29.96,ESE,107,0.0,0.0,86,0.00,,---,0.00,VWS V14.01,2013-06-16 10:21:00,
2013-06-16 05:26:00,71.7,67.3,29.97,ESE,107,0.0,0.0,86,0.00,,---,0.00,VWS V14.01,2013-06-16 10:26:00,
2013-06-16 05:31:00,71.7,67.3,29.97,ESE,107,0.0,0.0,86,0.00,,---,0.00,VWS V14.01,2013-06-16 10:31:00,
2013-06-16 05:36:00,71.8,67.1,29.97,ESE,107,0.0,0.0,85,0.00,,---,0.00,VWS V14.01,2013-06-16 10:36:00,
2013-06-16 05:41:00,71.9,67.2,29.98,ESE,107,0.0,0.0,85,0.00,,---,0.00,VWS V14.01,2013-06-16 10:41:00,
2013-06-16 05:46:00,71.9,67.2,29.98,ESE,107,0.0,0.0,85,0.00,,---,0.00,VWS V14.01,2013-06-16 10:46:00,
2013-06-16 05:51:00,71.9,67.2,29.98,ESE,107,0.0,0.0,85,0.00,,---,0.00,VWS V14.01,2013-06-16 10:51:00,
2013-06-16 05:56:00,71.9,67.2,29.98,ESE,107,0.0,0.0,85,0.00,,---,0.00,VWS V14.01,2013-06-16 10:56:00,
2013-06-16 06:01:00,72.0,67.2,29.98,ESE,107,0.0,0.0,85,0.00,,---,0.00,VWS V14.01,2013-06-16 11:01:00,
2013-06-16 06:06:00,72.1,67.3,29.98,ESE,107,0.0,0.0,85,0.00,,---,0.00,VWS V14.01,2013-06-16 11:06:00,
2013-06-16 06:11:00,72.2,67.4,29.98,ESE,107,0.0,0.0,85,0.00,,---,0.00,VWS V14.01,2013-06-16 11:11:00,
2013-06-16 06:16:00,72.2,67.4,29.98,ESE,107,0.0,0.0,85,0.00,,---,0.00,VWS V14.01,2013-06-16 11:16:00,
2013-06-16 06:21:00,72.3,67.5,29.98,ESE,107,0.0,0.0,85,0.00,,---,0.00,VWS V14.01,2013-06-16 11:21:00,
2013-06-16 06:26:00,72.4,67.6,29.98,ESE,107,0.0,0.0,85,0.00,,---,0.00,VWS V14.01,2013-06-16 11:26:00,
2013-06-16 06:31:00,72.4,67.6,29.98,ESE,107,0.0,0.0,85,0.00,,---,0.00,VWS V14.01,2013-06-16 11:31:00,
2013-06-16 06:36:00,72.5,67.7,29.98,ESE,107,0.0,0.0,85,0.00,,---,0.00,VWS V14.01,2013-06-16 11:36:00,
2013-06-16 06:41:00,72.6,67.8,29.98,ESE,107,0.0,0.0,85,0.00,,---,0.00,VWS V14.01,2013-06-16 11:41:00,
2013-06-16 06:46:00,72.7,67.6,29.98,ESE,107,0.0,0.0,84,0.00,,---,0.00,VWS V14.01,2013-06-16 11:46:00,
2013-06-16 06:51:00,72.9,68.1,29.98,ESE,107,0.0,0.0,85,0.00,,---,0.00,VWS V14.01,2013-06-16 11:51:00,
2013-06-16 06:56:00,73.0,67.9,29.98,ESE,107,0.0,0.0,84,0.00,,---,0.00,VWS V14.01,2013-06-16 11:56:00,
2013-06-16 07:01:00,73.2,68.1,29.99,ESE,107,0.0,0.0,84,0.00,,---,0.00,VWS V14.01,2013-06-16 12:01:00,
2013-06-16 07:06:00,73.4,68.3,29.99,ESE,107,0.0,0.0,84,0.00,,---,0.00,VWS V14.01,2013-06-16 12:06:00,
2013-06-16 07:11:00,73.6,68.5,29.99,ESE,107,0.0,0.0,84,0.00,,---,0.00,VWS V14.01,2013-06-16 12:11:00,
2013-06-16 07:16:00,73.8,68.3,29.99,ESE,107,0.0,0.0,83,0.00,,---,0.00,VWS V14.01,2013-06-16 12:16:00,
2013-06-16 07:21:00,74.0,68.5,29.99,ESE,107,0.0,0.0,83,0.00,,---,0.00,VWS V14.01,2013-06-16 12:21:00,
2013-06-16 07:26:00,74.2,68.7,29.99,ESE,107,0.0,0.0,83,0.00,,---,0.00,VWS V14.01,2013-06-16 12:26:00,
2013-06-16 07:30:00,74.4,68.6,30.00,ESE,107,0.0,0.0,82,0.00,,---,0.00,VWS V14.01,2013-06-16 12:30:00,
2013-06-16 07:35:00,74.6,68.8,30.00,ESE,107,0.0,0.0,82,0.00,,---,0.00,VWS V14.01,2013-06-16 12:35:00,
2013-06-16 07:41:00,74.8,68.9,30.00,ESE,107,0.0,0.0,82,0.00,,---,0.00,VWS V14.01,2013-06-16 12:41:00,
2013-06-16 07:46:00,75.0,69.1,30.00,ESE,107,0.0,0.0,82,0.00,,---,0.00,VWS V14.01,2013-06-16 12:46:00,
2013-06-16 07:51:00,75.2,69.3,30.00,ESE,107,0.0,0.0,82,0.00,,---,0.00,VWS V14.01,2013-06-16 12:51:00,
2013-06-16 07:55:00,75.4,69.2,30.01,ESE,107,0.0,0.0,81,0.00,,---,0.00,VWS V14.01,2013-06-16 12:55:00,
2013-06-16 08:00:00,75.6,69.4,30.01,ESE,106,0.0,0.0,81,0.00,,---,0.00,VWS V14.01,2013-06-16 13:00:00,
2013-06-16 08:05:00,75.7,69.5,30.01,ESE,107,0.0,0.0,81,0.00,,---,0.00,VWS V14.01,2013-06-16 13:05:00,
2013-06-16 08:10:00,75.9,69.3,30.01,ESE,106,0.0,0.0,80,0.00,,---,0.00,VWS V14.01,2013-06-16 13:10:00,
2013-06-16 08:15:00,76.2,69.6,30.01,ESE,107,0.0,0.0,80,0.00,,---,0.00,VWS V14.01,2013-06-16 13:15:00,
2013-06-16 08:20:00,76.5,69.5,30.01,ESE,107,0.0,0.0,79,0.00,,---,0.00,VWS V14.01,2013-06-16 13:20:00,
2013-06-16 08:25:00,76.7,69.3,30.01,ESE,107,0.0,0.0,78,0.00,,---,0.00,VWS V14.01,2013-06-16 13:25:00,
2013-06-16 08:30:00,77.1,69.7,30.01,ESE,106,0.0,0.0,78,0.00,,---,0.00,VWS V14.01,2013-06-16 13:30:00,
2013-06-16 08:35:00,77.5,70.1,30.01,ESE,106,0.0,0.0,78,0.00,,---,0.00,VWS V14.01,2013-06-16 13:35:00,
2013-06-16 08:40:00,77.9,69.7,30.01,SSE,147,0.0,0.0,76,0.00,,---,0.00,VWS V14.01,2013-06-16 13:40:00,
2013-06-16 08:45:00,78.6,70.0,30.01,SSE,155,0.0,0.0,75,0.00,,---,0.00,VWS V14.01,2013-06-16 13:45:00,
2013-06-16 08:50:00,79.7,70.7,30.00,ESE,112,0.0,0.0,74,0.00,,---,0.00,VWS V14.01,2013-06-16 13:50:00,
2013-06-16 08:55:00,80.5,70.2,30.00,SE,142,0.0,0.0,71,0.00,,---,0.00,VWS V14.01,2013-06-16 13:55:00,
2013-06-16 09:00:00,80.9,70.6,30.00,SSE,159,0.0,0.0,71,0.00,,---,0.00,VWS V14.01,2013-06-16 14:00:00,
2013-06-16 09:05:00,81.2,70.5,30.00,ESE,113,0.0,0.0,70,0.00,,---,0.00,VWS V14.01,2013-06-16 14:05:00,
2013-06-16 09:10:00,81.3,70.6,30.00,ESE,123,0.0,0.0,70,0.00,,---,0.00,VWS V14.01,2013-06-16 14:10:00,
2013-06-16 09:15:00,81.4,69.8,30.00,SSE,166,0.0,0.0,68,0.00,,---,0.00,VWS V14.01,2013-06-16 14:15:00,
2013-06-16 09:20:00,81.5,70.4,29.99,SE,128,0.0,0.0,69,0.00,,---,0.00,VWS V14.01,2013-06-16 14:20:00,
2013-06-16 09:25:00,81.8,70.6,30.00,SSE,157,0.0,0.0,69,0.00,,---,0.00,VWS V14.01,2013-06-16 14:25:00,
2013-06-16 09:30:00,82.1,70.5,29.99,SSE,164,0.0,0.0,68,0.00,,---,0.00,VWS V14.01,2013-06-16 14:30:00,
2013-06-16 09:35:00,82.1,70.5,29.99,South,169,0.0,0.0,68,0.00,,---,0.00,VWS V14.01,2013-06-16 14:35:00,
2013-06-16 09:40:00,82.1,70.1,29.99,South,180,0.0,0.0,67,0.00,,---,0.00,VWS V14.01,2013-06-16 14:40:00,
2013-06-16 09:45:00,82.1,70.5,29.99,SSE,150,0.0,0.0,68,0.00,,---,0.00,VWS V14.01,2013-06-16 14:45:00,
2013-06-16 09:50:00,82.3,71.1,29.99,South,171,0.0,0.0,69,0.00,,---,0.00,VWS V14.01,2013-06-16 14:50:00,
2013-06-16 09:55:00,82.7,71.1,29.99,SSE,164,0.0,0.0,68,0.00,,---,0.00,VWS V14.01,2013-06-16 14:55:00,
2013-06-16 10:00:00,82.9,71.3,29.98,SSE,168,0.0,0.0,68,0.00,,---,0.00,VWS V14.01,2013-06-16 15:00:00,
2013-06-16 10:05:00,83.0,70.9,29.98,SE,140,0.0,0.0,67,0.00,,---,0.00,VWS V14.01,2013-06-16 15:05:00,
2013-06-16 10:10:00,83.1,71.0,29.98,SSE,148,0.0,0.0,67,0.00,,---,0.00,VWS V14.01,2013-06-16 15:10:00,
2013-06-16 10:15:00,83.0,70.5,29.98,South,175,0.0,0.0,66,0.00,,---,0.00,VWS V14.01,2013-06-16 15:15:00,
2013-06-16 10:20:00,82.9,70.8,29.98,SSE,159,0.0,0.0,67,0.00,,---,0.00,VWS V14.01,2013-06-16 15:20:00,
2013-06-16 10:25:00,82.8,71.2,29.98,SSE,157,0.0,0.0,68,0.00,,---,0.00,VWS V14.01,2013-06-16 15:25:00,
2013-06-16 10:30:00,83.0,71.4,29.98,SSE,165,0.0,0.0,68,0.00,,---,0.00,VWS V14.01,2013-06-16 15:30:00,
2013-06-16 10:35:00,83.6,71.9,29.97,South,169,0.0,0.0,68,0.00,,---,0.00,VWS V14.01,2013-06-16 15:35:00,
2013-06-16 10:40:00,84.2,72.1,29.98,South,178,0.0,0.0,67,0.00,,---,0.00,VWS V14.01,2013-06-16 15:40:00,
2013-06-16 10:45:00,84.7,72.1,29.98,SSW,194,0.0,0.0,66,0.00,,---,0.00,VWS V14.01,2013-06-16 15:45:00,
2013-06-16 10:50:00,85.1,71.6,29.98,SE,146,0.0,0.0,64,0.00,,---,0.00,VWS V14.01,2013-06-16 15:50:00,
2013-06-16 10:55:00,85.3,71.3,29.98,SSW,203,0.0,0.0,63,0.00,,---,0.00,VWS V14.01,2013-06-16 15:55:00,
2013-06-16 11:00:00,85.6,72.0,29.98,SSW,192,0.0,0.0,64,0.00,,---,0.00,VWS V14.01,2013-06-16 16:00:00,
2013-06-16 11:05:00,85.8,71.3,29.98,South,178,0.0,0.0,62,0.00,,---,0.00,VWS V14.01,2013-06-16 16:05:00,
2013-06-16 11:10:00,85.6,71.6,29.98,South,189,0.0,0.0,63,0.00,,---,0.00,VWS V14.01,2013-06-16 16:10:00,
2013-06-16 11:15:00,85.6,71.6,29.98,SE,142,0.0,0.0,63,0.00,,---,0.00,VWS V14.01,2013-06-16 16:15:00,
2013-06-16 11:20:00,85.8,71.8,29.98,SSE,158,0.0,0.0,63,0.00,,---,0.00,VWS V14.01,2013-06-16 16:20:00,
2013-06-16 11:25:00,85.7,71.7,29.98,SSE,152,0.0,0.0,63,0.00,,---,0.00,VWS V14.01,2013-06-16 16:25:00,
2013-06-16 11:30:00,85.7,71.7,29.97,SSW,205,0.0,0.0,63,0.00,,---,0.00,VWS V14.01,2013-06-16 16:30:00,
2013-06-16 11:35:00,86.0,72.4,29.97,SSW,206,0.0,0.0,64,0.00,,---,0.00,VWS V14.01,2013-06-16 16:35:00,
2013-06-16 11:40:00,86.5,71.9,29.97,South,172,0.0,0.0,62,0.00,,---,0.00,VWS V14.01,2013-06-16 16:40:00,
2013-06-16 11:45:00,86.6,71.6,29.97,South,183,0.0,0.0,61,0.00,,---,0.00,VWS V14.01,2013-06-16 16:45:00,
2013-06-16 11:50:00,86.6,71.1,29.97,South,181,0.0,0.0,60,0.00,,---,0.00,VWS V14.01,2013-06-16 16:50:00,
2013-06-16 11:55:00,86.5,71.5,29.97,SSW,198,0.0,0.0,61,0.00,,---,0.00,VWS V14.01,2013-06-16 16:55:00,
2013-06-16 12:00:00,86.6,72.0,29.97,SSW,200,0.0,0.0,62,0.00,,---,0.00,VWS V14.01,2013-06-16 17:00:00,
2013-06-16 12:05:00,86.6,72.0,29.97,South,175,0.0,0.0,62,0.00,,---,0.00,VWS V14.01,2013-06-16 17:05:00,
2013-06-16 12:10:00,86.6,72.0,29.97,SSW,210,0.0,0.0,62,0.00,,---,0.00,VWS V14.01,2013-06-16 17:10:00,
2013-06-16 12:15:00,86.5,71.9,29.97,SSW,199,0.0,0.0,62,0.00,,---,0.00,VWS V14.01,2013-06-16 17:15:00,
2013-06-16 12:20:00,86.3,72.2,29.97,SSW,211,0.0,0.0,63,0.00,,---,0.00,VWS V14.01,2013-06-16 17:20:00,
2013-06-16 12:25:00,86.2,72.1,29.97,South,172,0.0,0.0,63,0.00,,---,0.00,VWS V14.01,2013-06-16 17:25:00,
2013-06-16 12:30:00,86.1,72.0,29.97,SSW,194,0.0,0.0,63,0.00,,---,0.00,VWS V14.01,2013-06-16 17:30:00,
2013-06-16 12:35:00,86.2,72.1,29.97,SSW,208,0.0,0.0,63,0.00,,---,0.00,VWS V14.01,2013-06-16 17:35:00,
2013-06-16 12:40:00,86.6,73.9,29.97,South,178,0.0,0.0,66,0.00,,---,0.00,VWS V14.01,2013-06-16 17:40:00,
2013-06-16 12:45:00,86.7,72.6,29.97,SW,217,0.0,0.0,63,0.00,,---,0.00,VWS V14.01,2013-06-16 17:45:00,
2013-06-16 12:50:00,87.0,72.4,29.97,SSE,164,0.0,0.0,62,0.00,,---,0.00,VWS V14.01,2013-06-16 17:50:00,
2013-06-16 12:55:00,87.4,72.3,29.96,SSE,157,0.0,0.0,61,0.00,,---,0.00,VWS V14.01,2013-06-16 17:55:00,
2013-06-16 13:00:00,87.6,73.0,29.96,South,187,0.0,0.0,62,0.00,,---,0.00,VWS V14.01,2013-06-16 18:00:00,
2013-06-16 13:05:00,88.2,72.6,29.96,SW,217,0.0,0.0,60,0.00,,---,0.00,VWS V14.01,2013-06-16 18:05:00,
2013-06-16 13:10:00,88.4,71.8,29.96,South,188,0.0,0.0,58,0.00,,---,0.00,VWS V14.01,2013-06-16 18:10:00,
2013-06-16 13:15:00,88.4,71.8,29.96,SSW,213,0.0,0.0,58,0.00,,---,0.00,VWS V14.01,2013-06-16 18:15:00,
2013-06-16 13:20:00,88.4,72.8,29.96,SSW,194,0.0,0.0,60,0.00,,---,0.00,VWS V14.01,2013-06-16 18:20:00,
2013-06-16 13:25:00,88.6,72.4,29.96,South,182,0.0,0.0,59,0.00,,---,0.00,VWS V14.01,2013-06-16 18:25:00,
2013-06-16 13:30:00,88.8,72.6,29.95,South,186,0.0,0.0,59,0.00,,---,0.00,VWS V14.01,2013-06-16 18:30:00,
2013-06-16 13:35:00,89.0,73.3,29.95,South,188,0.0,0.0,60,0.00,,---,0.00,VWS V14.01,2013-06-16 18:35:00,
2013-06-16 13:40:00,89.2,73.0,29.95,SSW,207,0.0,0.0,59,0.00,,---,0.00,VWS V14.01,2013-06-16 18:40:00,
2013-06-16 13:45:00,89.3,73.1,29.95,SSW,193,0.0,0.0,59,0.00,,---,0.00,VWS V14.01,2013-06-16 18:45:00,
2013-06-16 13:50:00,89.0,71.8,29.95,SSW,192,0.0,0.0,57,0.00,,---,0.00,VWS V14.01,2013-06-16 18:50:00,
2013-06-16 13:55:00,88.7,72.0,29.95,SW,225,0.0,0.0,58,0.00,,---,0.00,VWS V14.01,2013-06-16 18:55:00,
2013-06-16 14:00:00,88.4,71.8,29.95,SSW,211,0.0,0.0,58,0.00,,---,0.00,VWS V14.01,2013-06-16 19:00:00,
2013-06-16 14:05:00,88.2,72.1,29.95,South,182,0.0,0.0,59,0.00,,---,0.00,VWS V14.01,2013-06-16 19:05:00,
2013-06-16 14:10:00,88.3,72.2,29.95,SSW,209,0.0,0.0,59,0.00,,---,0.00,VWS V14.01,2013-06-16 19:10:00,
2013-06-16 14:15:00,88.4,71.8,29.95,SW,229,0.0,0.0,58,0.00,,---,0.00,VWS V14.01,2013-06-16 19:15:00,
2013-06-16 14:20:00,88.6,72.4,29.95,SSW,205,0.0,0.0,59,0.00,,---,0.00,VWS V14.01,2013-06-16 19:20:00,
2013-06-16 14:25:00,88.5,72.8,29.95,SW,227,0.0,0.0,60,0.00,,---,0.00,VWS V14.01,2013-06-16 19:25:00,
2013-06-16 14:30:00,88.4,71.8,29.95,SSW,196,0.0,0.0,58,0.00,,---,0.00,VWS V14.01,2013-06-16 19:30:00,
2013-06-16 14:35:00,88.3,71.7,29.95,South,185,0.0,0.0,58,0.00,,---,0.00,VWS V14.01,2013-06-16 19:35:00,
2013-06-16 14:40:00,88.1,73.0,29.95,SSW,205,0.0,0.0,61,0.00,,---,0.00,VWS V14.01,2013-06-16 19:40:00,
2013-06-16 14:45:00,88.2,72.6,29.95,WSW,248,0.0,0.0,60,0.00,,---,0.00,VWS V14.01,2013-06-16 19:45:00,
2013-06-16 14:50:00,88.2,72.1,29.95,SSW,203,0.0,0.0,59,0.00,,---,0.00,VWS V14.01,2013-06-16 19:50:00,
2013-06-16 14:55:00,88.1,72.0,29.95,WSW,250,0.0,0.0,59,0.00,,---,0.00,VWS V14.01,2013-06-16 19:55:00,
2013-06-16 15:00:00,87.9,71.8,29.95,SW,229,0.0,0.0,59,0.00,,---,0.00,VWS V14.01,2013-06-16 20:00:00,
2013-06-16 15:05:00,87.8,72.2,29.95,WSW,258,0.0,0.0,60,0.00,,---,0.00,VWS V14.01,2013-06-16 20:05:00,
2013-06-16 15:10:00,87.7,72.1,29.95,WSW,251,0.0,0.0,60,0.00,,---,0.00,VWS V14.01,2013-06-16 20:10:00,
2013-06-16 15:15:00,87.5,72.4,29.94,West,260,0.0,0.0,61,0.00,,---,0.00,VWS V14.01,2013-06-16 20:15:00,
2013-06-16 15:20:00,87.4,71.8,29.94,SW,229,0.0,0.0,60,0.00,,---,0.00,VWS V14.01,2013-06-16 20:20:00,
2013-06-16 15:25:00,87.3,72.2,29.94,SSW,207,0.0,0.0,61,0.00,,---,0.00,VWS V14.01,2013-06-16 20:25:00,
2013-06-16 15:30:00,87.2,72.1,29.93,SSW,209,0.0,0.0,61,0.00,,---,0.00,VWS V14.01,2013-06-16 20:30:00,
2013-06-16 15:35:00,87.2,72.1,29.93,WSW,248,0.0,0.0,61,0.00,,---,0.00,VWS V14.01,2013-06-16 20:35:00,
2013-06-16 15:40:00,87.3,72.2,29.93,West,259,0.0,0.0,61,0.00,,---,0.00,VWS V14.01,2013-06-16 20:40:00,
2013-06-16 15:45:00,87.3,72.7,29.93,North,11,0.0,0.0,62,0.00,,---,0.00,VWS V14.01,2013-06-16 20:45:00,
2013-06-16 15:50:00,87.4,72.8,29.93,NNE,15,0.0,0.0,62,0.00,,---,0.00,VWS V14.01,2013-06-16 20:50:00,
2013-06-16 15:55:00,87.6,72.0,29.93,North,5,0.0,0.0,60,0.00,,---,0.00,VWS V14.01,2013-06-16 20:55:00,
2013-06-16 16:00:00,88.0,74.8,29.93,WSW,240,0.0,0.0,65,0.00,,---,0.00,VWS V14.01,2013-06-16 21:00:00,
2013-06-16 16:05:00,88.8,74.1,29.93,West,261,0.0,0.0,62,0.00,,---,0.00,VWS V14.01,2013-06-16 21:05:00,
2013-06-16 16:10:00,89.3,73.6,29.93,SW,234,0.0,0.0,60,0.00,,---,0.00,VWS V14.01,2013-06-16 21:10:00,
2013-06-16 16:15:00,89.2,72.0,29.93,ESE,107,0.0,0.0,57,0.00,,---,0.00,VWS V14.01,2013-06-16 21:15:00,
2013-06-16 16:20:00,88.8,72.6,29.93,ESE,107,0.0,0.0,59,0.00,,---,0.00,VWS V14.01,2013-06-16 21:20:00,
2013-06-16 16:25:00,88.5,72.8,29.93,SE,138,0.0,0.0,60,0.00,,---,0.00,VWS V14.01,2013-06-16 21:25:00,
2013-06-16 16:30:00,88.2,72.6,29.92,SSE,162,0.0,0.0,60,0.00,,---,0.00,VWS V14.01,2013-06-16 21:30:00,
2013-06-16 16:35:00,88.0,72.4,29.92,SW,236,0.0,0.0,60,0.00,,---,0.00,VWS V14.01,2013-06-16 21:35:00,
2013-06-16 16:40:00,88.2,72.1,29.93,SW,224,0.0,0.0,59,0.00,,---,0.00,VWS V14.01,2013-06-16 21:40:00,
2013-06-16 16:45:00,88.1,71.5,29.93,SW,215,0.0,0.0,58,0.00,,---,0.00,VWS V14.01,2013-06-16 21:45:00,
2013-06-16 16:50:00,87.8,71.7,29.92,SW,215,0.0,0.0,59,0.00,,---,0.00,VWS V14.01,2013-06-16 21:50:00,
2013-06-16 16:55:00,87.7,72.1,29.92,SSW,206,0.0,0.0,60,0.00,,---,0.00,VWS V14.01,2013-06-16 21:55:00,
2013-06-16 17:00:00,87.7,72.6,29.92,SSW,205,0.0,0.0,61,0.00,,---,0.00,VWS V14.01,2013-06-16 22:00:00,
2013-06-16 17:05:00,87.7,72.1,29.92,SSW,205,0.0,0.0,60,0.00,,---,0.00,VWS V14.01,2013-06-16 22:05:00,
2013-06-16 17:10:00,87.8,72.2,29.92,SSW,205,0.0,0.0,60,0.00,,---,0.00,VWS V14.01,2013-06-16 22:10:00,
2013-06-16 17:15:00,87.7,71.6,29.92,SSW,205,0.0,0.0,59,0.00,,---,0.00,VWS V14.01,2013-06-16 22:15:00,
2013-06-16 17:20:00,87.7,71.6,29.91,SSW,205,0.0,0.0,59,0.00,,---,0.00,VWS V14.01,2013-06-16 22:20:00,
2013-06-16 17:25:00,87.7,72.1,29.91,SSW,205,0.0,0.0,60,0.00,,---,0.00,VWS V14.01,2013-06-16 22:25:00,
2013-06-16 17:30:00,87.6,73.0,29.92,SSW,205,0.0,0.0,62,0.00,,---,0.00,VWS V14.01,2013-06-16 22:30:00,
2013-06-16 17:35:00,87.3,72.7,29.92,SSW,205,0.0,0.0,62,0.00,,---,0.00,VWS V14.01,2013-06-16 22:35:00,
2013-06-16 17:40:00,87.0,73.4,29.92,SSW,205,0.0,0.0,64,0.00,,---,0.00,VWS V14.01,2013-06-16 22:40:00,
2013-06-16 17:45:00,86.8,73.2,29.92,SSW,205,0.0,0.0,64,0.00,,---,0.00,VWS V14.01,2013-06-16 22:45:00,
2013-06-16 17:50:00,86.6,73.4,29.92,SSW,205,0.0,0.0,65,0.00,,---,0.00,VWS V14.01,2013-06-16 22:50:00,
2013-06-16 17:55:00,86.3,73.6,29.92,East,89,0.0,0.0,66,0.00,,---,0.00,VWS V14.01,2013-06-16 22:55:00,
2013-06-16 18:00:00,85.9,73.7,29.92,East,92,0.0,0.0,67,0.00,,---,0.00,VWS V14.01,2013-06-16 23:00:00,
2013-06-16 18:05:00,85.7,74.4,29.92,East,90,0.0,0.0,69,0.00,,---,0.00,VWS V14.01,2013-06-16 23:05:00,
2013-06-16 18:10:00,85.6,73.8,29.92,East,92,0.0,0.0,68,0.00,,---,0.00,VWS V14.01,2013-06-16 23:10:00,
2013-06-16 18:15:00,85.5,73.7,29.92,East,92,0.0,0.0,68,0.00,,---,0.00,VWS V14.01,2013-06-16 23:15:00,
2013-06-16 18:20:00,85.4,74.1,29.92,East,92,0.0,0.0,69,0.00,,---,0.00,VWS V14.01,2013-06-16 23:20:00,
2013-06-16 18:25:00,85.4,74.1,29.92,East,98,0.0,0.0,69,0.00,,---,0.00,VWS V14.01,2013-06-16 23:25:00,
2013-06-16 18:30:00,85.3,73.6,29.92,ESE,107,0.0,0.0,68,0.00,,---,0.00,VWS V14.01,2013-06-16 23:30:00,
2013-06-16 18:35:00,85.1,73.4,29.92,East,88,0.0,0.0,68,0.00,,---,0.00,VWS V14.01,2013-06-16 23:35:00,
2013-06-16 18:40:00,85.0,73.3,29.92,East,86,0.0,0.0,68,0.00,,---,0.00,VWS V14.01,2013-06-16 23:40:00,
2013-06-16 18:45:00,84.9,73.2,29.92,East,79,0.0,0.0,68,0.00,,---,0.00,VWS V14.01,2013-06-16 23:45:00,
2013-06-16 18:50:00,84.8,73.5,29.92,ENE,67,0.0,0.0,69,0.00,,---,0.00,VWS V14.01,2013-06-16 23:50:00,
2013-06-16 18:55:00,84.8,73.5,29.92,ENE,67,0.0,0.0,69,0.00,,---,0.00,VWS V14.01,2013-06-16 23:55:00,
2013-06-16 19:00:00,84.6,73.3,29.92,East,80,0.0,0.0,69,0.00,,---,0.00,VWS V14.01,2013-06-17 00:00:00,
2013-06-16 19:05:00,84.5,73.7,29.92,East,80,0.0,0.0,70,0.00,,---,0.00,VWS V14.01,2013-06-17 00:05:00,
2013-06-16 19:10:00,84.6,73.7,29.92,East,90,0.0,0.0,70,0.00,,---,0.00,VWS V14.01,2013-06-17 00:10:00,
2013-06-16 19:15:00,84.8,74.4,29.92,ESE,109,0.0,0.0,71,0.00,,---,0.00,VWS V14.01,2013-06-17 00:15:00,
2013-06-16 19:20:00,84.8,73.9,29.92,ESE,117,0.0,0.0,70,0.00,,---,0.00,VWS V14.01,2013-06-17 00:20:00,
2013-06-16 19:25:00,84.7,74.3,29.92,ESE,110,0.0,0.0,71,0.00,,---,0.00,VWS V14.01,2013-06-17 00:25:00,
2013-06-16 19:30:00,84.5,73.7,29.92,SE,139,0.0,0.0,70,0.00,,---,0.00,VWS V14.01,2013-06-17 00:30:00,
2013-06-16 19:35:00,84.2,73.4,29.92,SE,146,0.0,0.0,70,0.00,,---,0.00,VWS V14.01,2013-06-17 00:35:00,
2013-06-16 19:40:00,83.9,73.1,29.92,SSE,150,0.0,0.0,70,0.00,,---,0.00,VWS V14.01,2013-06-17 00:40:00,
2013-06-16 19:45:00,83.6,73.2,29.91,SSE,155,0.0,0.0,71,0.00,,---,0.00,VWS V14.01,2013-06-17 00:45:00,
2013-06-16 19:50:00,83.4,73.4,29.91,SSE,163,0.0,0.0,72,0.00,,---,0.00,VWS V14.01,2013-06-17 00:50:00,
2013-06-16 19:55:00,83.1,73.1,29.91,South,174,0.0,0.0,72,0.00,,---,0.00,VWS V14.01,2013-06-17 00:55:00,
2013-06-16 20:00:00,82.9,72.9,29.91,SSW,192,0.0,0.0,72,0.00,,---,0.00,VWS V14.01,2013-06-17 01:00:00,
2013-06-16 20:05:00,82.7,73.2,29.91,SSW,195,0.0,0.0,73,0.00,,---,0.00,VWS V14.01,2013-06-17 01:05:00,
2013-06-16 20:10:00,82.5,73.0,29.90,SSW,195,0.0,0.0,73,0.00,,---,0.00,VWS V14.01,2013-06-17 01:10:00,
2013-06-16 20:15:00,82.2,72.7,29.91,SSW,195,0.0,0.0,73,0.00,,---,0.00,VWS V14.01,2013-06-17 01:15:00,
2013-06-16 20:20:00,81.9,72.0,29.91,South,177,0.0,0.0,72,0.00,,---,0.00,VWS V14.01,2013-06-17 01:20:00,
2013-06-16 20:25:00,81.7,71.0,29.91,South,173,0.0,0.0,70,0.00,,---,0.00,VWS V14.01,2013-06-17 01:25:00,
2013-06-16 20:30:00,81.5,70.8,29.91,SSE,163,0.0,0.0,70,0.00,,---,0.00,VWS V14.01,2013-06-17 01:30:00,
2013-06-16 20:35:00,81.4,70.3,29.91,SSE,159,0.0,0.0,69,0.00,,---,0.00,VWS V14.01,2013-06-17 01:35:00,
2013-06-16 20:40:00,81.2,69.6,29.91,SE,144,0.0,0.0,68,0.00,,---,0.00,VWS V14.01,2013-06-17 01:40:00,
2013-06-16 20:45:00,81.1,69.6,29.91,SE,144,0.0,0.0,68,0.00,,---,0.00,VWS V14.01,2013-06-17 01:45:00,
2013-06-16 20:50:00,81.0,69.4,29.91,SE,144,0.0,0.0,68,0.00,,---,0.00,VWS V14.01,2013-06-17 01:50:00,
2013-06-16 20:55:00,80.8,69.3,29.91,SE,142,0.0,0.0,68,0.00,,---,0.00,VWS V14.01,2013-06-17 01:55:00,
2013-06-16 21:00:00,80.7,69.2,29.91,SE,144,0.0,0.0,68,0.00,,---,0.00,VWS V14.01,2013-06-17 02:00:00,
2013-06-16 21:05:00,80.5,69.0,29.91,SE,146,0.0,0.0,68,0.00,,---,0.00,VWS V14.01,2013-06-17 02:05:00,
2013-06-16 21:10:00,80.4,69.3,29.91,SE,132,0.0,0.0,69,0.00,,---,0.00,VWS V14.01,2013-06-17 02:10:00,
2013-06-16 21:15:00,80.3,69.2,29.91,SE,134,0.0,0.0,69,0.00,,---,0.00,VWS V14.01,2013-06-17 02:15:00,
2013-06-16 21:20:00,80.1,69.0,29.91,SSE,148,0.0,0.0,69,0.00,,---,0.00,VWS V14.01,2013-06-17 02:20:00,
2013-06-16 21:25:00,80.0,69.3,29.91,SSE,150,0.0,0.0,70,0.00,,---,0.00,VWS V14.01,2013-06-17 02:25:00,
2013-06-16 21:30:00,79.8,69.2,29.92,SSE,150,0.0,0.0,70,0.00,,---,0.00,VWS V14.01,2013-06-17 02:30:00,
2013-06-16 21:35:00,79.6,69.0,29.92,SSE,150,0.0,0.0,70,0.00,,---,0.00,VWS V14.01,2013-06-17 02:35:00,
2013-06-16 21:40:00,79.4,69.2,29.92,SSE,149,0.0,0.0,71,0.00,,---,0.00,VWS V14.01,2013-06-17 02:40:00,
2013-06-16 21:45:00,79.2,69.0,29.92,SE,142,0.0,0.0,71,0.00,,---,0.00,VWS V14.01,2013-06-17 02:45:00,
2013-06-16 21:50:00,79.0,69.2,29.92,SSE,153,0.0,0.0,72,0.00,,---,0.00,VWS V14.01,2013-06-17 02:50:00,
2013-06-16 21:55:00,78.9,69.1,29.91,SSE,155,0.0,0.0,72,0.00,,---,0.00,VWS V14.01,2013-06-17 02:55:00,
2013-06-16 22:00:00,78.8,69.0,29.92,SSE,155,0.0,0.0,72,0.00,,---,0.00,VWS V14.01,2013-06-17 03:00:00,
2013-06-16 22:05:00,78.6,69.2,29.92,SSE,152,0.0,0.0,73,0.00,,---,0.00,VWS V14.01,2013-06-17 03:05:00,
2013-06-16 22:10:00,78.4,69.0,29.92,SSE,152,0.0,0.0,73,0.00,,---,0.00,VWS V14.01,2013-06-17 03:10:00,
2013-06-16 22:15:00,78.1,69.1,29.92,SSE,152,0.0,0.0,74,0.00,,---,0.00,VWS V14.01,2013-06-17 03:15:00,
2013-06-16 22:20:00,77.8,69.2,29.93,SSE,152,0.0,0.0,75,0.00,,---,0.00,VWS V14.01,2013-06-17 03:20:00,
2013-06-16 22:25:00,77.6,69.1,29.93,SSE,152,0.0,0.0,75,0.00,,---,0.00,VWS V14.01,2013-06-17 03:25:00,
2013-06-16 22:30:00,77.3,68.8,29.93,SSE,152,0.0,0.0,75,0.00,,---,0.00,VWS V14.01,2013-06-17 03:30:00,
2013-06-16 22:35:00,77.1,68.6,29.93,SSE,152,0.0,0.0,75,0.00,,---,0.00,VWS V14.01,2013-06-17 03:35:00,
2013-06-16 22:40:00,76.9,68.4,29.93,SSE,152,0.0,0.0,75,0.00,,---,0.00,VWS V14.01,2013-06-17 03:40:00,
2013-06-16 22:45:00,76.7,68.6,29.92,SSE,151,0.0,0.0,76,0.00,,---,0.00,VWS V14.01,2013-06-17 03:45:00,
2013-06-16 22:50:00,76.6,68.5,29.92,SSE,150,0.0,0.0,76,0.00,,---,0.00,VWS V14.01,2013-06-17 03:50:00,
2013-06-16 22:55:00,76.5,68.4,29.92,SSE,150,0.0,0.0,76,0.00,,---,0.00,VWS V14.01,2013-06-17 03:55:00,
2013-06-16 23:00:00,76.4,68.7,29.92,SSE,150,0.0,0.0,77,0.00,,---,0.00,VWS V14.01,2013-06-17 04:00:00,
2013-06-16 23:01:00,76.4,68.7,29.92,SSE,150,0.0,0.0,77,0.00,,---,0.00,VWS V14.01,2013-06-17 04:01:00,
2013-06-16 23:06:00,76.2,68.5,29.92,SSE,150,0.0,0.0,77,0.00,,---,0.00,VWS V14.01,2013-06-17 04:06:00,
2013-06-16 23:11:00,76.0,68.3,29.92,SSE,150,0.0,0.0,77,0.00,,---,0.00,VWS V14.01,2013-06-17 04:11:00,
2013-06-16 23:16:00,75.9,68.6,29.92,SSE,151,0.0,0.0,78,0.00,,---,0.00,VWS V14.01,2013-06-17 04:16:00,
2013-06-16 23:21:00,75.7,68.7,29.92,SSE,152,0.0,0.0,79,0.00,,---,0.00,VWS V14.01,2013-06-17 04:21:00,
2013-06-16 23:26:00,75.6,69.0,29.92,SSE,151,0.0,0.0,80,0.00,,---,0.00,VWS V14.01,2013-06-17 04:26:00,
2013-06-16 23:31:00,75.4,68.8,29.92,SSE,151,0.0,0.0,80,0.00,,---,0.00,VWS V14.01,2013-06-17 04:31:00,
2013-06-16 23:36:00,75.4,68.8,29.93,SSE,161,0.0,0.0,80,0.00,,---,0.00,VWS V14.01,2013-06-17 04:36:00,
2013-06-16 23:41:00,75.4,69.2,29.92,SSE,163,0.0,0.0,81,0.00,,---,0.00,VWS V14.01,2013-06-17 04:41:00,
2013-06-16 23:46:00,75.5,69.3,29.93,SSE,162,0.0,0.0,81,0.00,,---,0.00,VWS V14.01,2013-06-17 04:46:00,
2013-06-16 23:51:00,75.6,69.4,29.93,SSE,161,0.0,0.0,81,0.00,,---,0.00,VWS V14.01,2013-06-17 04:51:00,
2013-06-16 23:56:00,75.7,69.5,29.93,SSE,161,0.0,0.0,81,0.00,,---,0.00,VWS V14.01,2013-06-17 04:56:00,